Miscellaneous Local Product
Issued by NWS Hastings, NE

Home | Current Version | Previous Version | Text Only | Print | Product List | Glossary On
Versions: 1 2 3 4 5 6 7 8 9 10 11 12 13 14 15 16 17 18 19 20 21 22 23 24 25 26 27 28 29 30 31 32 33 34 35 36 37 38 39 40 41 42 43 44 45 46 47 48 49 50
689
AXUS43 KGID 300502
MISGRI

GID CWA HOURLY WEATHER ROUNDUP
NATIONAL WEATHER SERVICE HASTINGS NE
1200 AM CDT FRI SEP 30 2016

NOTE: "FAIR" INDICATES FEW OR NO CLOUDS BELOW 12,000 FEET WITH NO
SIGNIFICANT WEATHER AND/OR OBSTRUCTIONS TO VISIBILITY.

...SOUTH CENTRAL NEBRASKA...

CITY           SKY/WX    TMP DP  RH WIND       PRES   REMARKS
GRAND ISLAND   CLEAR     51  45  79 SE7       30.35S
HASTINGS       CLEAR     54  44  69 SE8       30.35S
KEARNEY        CLEAR     48  41  76 E5        30.34R
ORD            CLEAR     43  40  89 CALM      30.33S
YORK           CLEAR     50  46  87 CALM      30.35S
AURORA         CLEAR     48  45  89 SE5       30.35S
LEXINGTON      CLEAR     50  43  77 SE6       30.33S
HOLDREGE       CLEAR     46  41  80 CALM      30.33S
HEBRON         CLEAR     47  45  93 CALM      30.34S

...NEBRASKA PANHANDLE...

CITY           SKY/WX    TMP DP  RH WIND       PRES   REMARKS
CHADRON        CLOUDY    64  40  41 S24G35    30.18S
ALLIANCE       CLEAR     56  41  57 SE14      30.25S
SCOTTSBLUFF    CLOUDY    58  42  55 E15       30.24S
SIDNEY         CLOUDY    57  41  55 SE14      30.27F

...WESTERN AND NORTH CENTRAL NEBRASKA...

CITY           SKY/WX    TMP DP  RH WIND       PRES   REMARKS
VALENTINE      NOT AVBL
AINSWORTH      CLEAR     50  44  78 S7        30.31S
ONEILL         CLEAR     51  44  77 SE3       30.35R
BROKEN BOW     CLEAR     39  38  96 CALM      30.33S
IMPERIAL       CLEAR     52  41  66 SE12      30.30S
NORTH PLATTE   CLEAR     47  40  76 SE6       30.31S
MCCOOK         CLEAR     51  43  74 SE7       30.32R

...EASTERN NEBRASKA...

CITY           SKY/WX    TMP DP  RH WIND       PRES   REMARKS
NORFOLK        CLEAR     46  43  89 SE5       30.35S
SO SIOUX CITY  CLEAR     48  45  89 SE3       30.36R
TEKAMAH        CLEAR     47  44  90 NW6       30.35S
COLUMBUS       CLEAR     45  34  65 CALM      30.35F
ALBION         CLEAR     44  42  93 CALM      30.35S
OMAHA EPPLEY   CLEAR     51  45  79 N3        30.34S
OFFUTT AFB     CLEAR     48  47  96 NE2       30.32F
MILLARD        CLEAR     52  49  90 CALM      30.34S
LINCOLN        CLEAR     50  47  89 N6        30.35F
NEBRASKA CITY  CLEAR     55  42  60 N3        30.33S
BEATRICE       CLEAR     51  47  87 CALM      30.33F
FALLS CITY     CLEAR     54  47  77 NW3       30.31F

...NORTHERN KANSAS...

CITY           SKY/WX    TMP DP  RH WIND       PRES   REMARKS
GOODLAND       CLEAR     52  38  58 S15       30.29S
HILL CITY      CLEAR     47  43  86 E3        30.33S
NORTON         CLEAR     48  39  71 E3        30.31F
PHILLIPSBURG   CLEAR     48  45  87 NE3       30.33S
SMITH CENTER   HAZE      48  45  87 CALM      30.34S VSB 1/2
HAYS           CLEAR     48  37  66 SE7       30.33S
RUSSELL        CLEAR     52  46  80 SE9       30.32S
CONCORDIA      CLEAR     53  48  83 CALM      30.33S
SALINA         CLEAR     56  49  77 CALM      30.33S
TOPEKA         CLEAR     50  48  93 CALM      30.31S



USA.gov is the U.S. government's official web portal to all federal, state and local government web resources and services.